KC3RWX Weather Reports


time (UTC)temp
C
wind
direction
speed
KPH
gust
KPH
rain 1hr
cm
rain 24hr
cm
rain mn
cm
humidity
%
barometer
mb
20260510010008 10 153 1.6 4.8 0.00 0.64 0.64 89 1010.6
20260510004513 11 150 1.6 6.4 0.00 0.64 0.64 88 1010.5
20260510003016 11 166 1.6 6.4 0.00 0.64 0.64 84 1010.4
20260510001521 12 81 3.2 9.7 0.00 0.64 0.64 82 1010.3
20260510000011 12 335 4.8 8.0 0.00 0.64 0.64 82 1010.1
20260509234511 13 58 3.2 8.0 0.00 0.64 0.64 80 1010.0
20260509233014 14 68 3.2 8.0 0.00 0.64 0.64 78 1009.9
20260509231527 15 94 3.2 6.4 0.00 0.64 0.64 77 1009.8
20260509230024 15 101 3.2 8.0 0.00 0.64 0.64 76 1009.9
20260509224506 15 67 4.8 9.7 0.00 0.66 0.64 76 1009.8
20260509223011 15 69 4.8 9.7 0.00 0.66 0.64 76 1009.9
20260509221514 15 59 6.4 11.3 0.00 0.66 0.64 77 1010.0
20260509220019 15 72 3.2 4.8 0.00 0.66 0.64 77 1010.1
20260509214527 14 76 4.8 9.7 0.00 0.66 0.64 79 1010.2
20260509213007 13 103 0.0 4.8 0.00 0.66 0.64 86 1010.2
20260509211528 12 84 0.0 6.4 0.00 0.66 0.64 85 1010.3
20260509210019 12 104 3.2 4.8 0.00 0.66 0.64 87 1010.3
20260509204521 12 74 1.6 3.2 0.00 0.66 0.64 86 1010.4
20260509203029 12 67 1.6 3.2 0.03 0.66 0.64 87 1010.4
20260509201526 12 94 3.2 8.0 0.03 0.66 0.64 86 1010.6
20260509200026 12 84 6.4 14.5 0.05 0.66 0.64 86 1010.8
20260509194504 12 53 11.3 16.1 0.05 0.66 0.64 87 1010.7
20260509193004 12 79 6.4 11.3 0.03 0.64 0.61 87 1011.1
20260509191506 11 73 8.0 12.9 0.05 0.64 0.61 87 1011.2
20260509190014 11 65 6.4 11.3 0.05 0.61 0.58 87 1011.3
20260509184515 11 51 11.3 16.1 0.10 0.61 0.58 88 1011.4
20260509183004 11 51 6.4 11.3 0.15 0.61 0.58 89 1011.4
20260509181504 11 94 4.8 11.3 0.18 0.58 0.56 89 1011.8
20260509180008 11 71 4.8 19.3 0.25 0.56 0.53 89 1011.8
20260509174514 11 79 9.7 12.9 0.23 0.51 0.48 89 1012.0
20260509173020 11 87 6.4 11.3 0.20 0.46 0.43 88 1011.7
20260509171503 10 89 0.0 6.4 0.20 0.41 0.38 88 1012.0
20260509170004 10 90 6.4 8.0 0.18 0.30 0.28 87 1012.2
20260509164510 10 46 4.8 14.5 0.18 0.28 0.25 88 1011.9
20260509163031 10 16 6.4 12.9 0.18 0.25 0.23 88 1011.9
20260509161534 11 25 8.0 12.9 0.15 0.20 0.18 88 1012.1
20260509160016 11 23 8.0 19.3 0.08 0.13 0.10 86 1012.3
20260509154504 11 41 4.8 11.3 0.05 0.10 0.08 85 1012.4
20260509153011 11 75 8.0 16.1 0.05 0.08 0.05 83 1012.3
20260509151526 11 68 11.3 20.9 0.03 0.05 0.03 82 1012.2
20260509150020 11 69 1.6 8.0 0.03 0.05 0.03 79 1012.1
20260509144523 11 61 4.8 9.7 0.03 0.05 0.03 80 1012.3
20260509143008 11 44 8.0 14.5 0.00 0.03 0.00 80 1012.3
20260509141519 11 341 3.2 8.0 0.00 0.03 0.00 84 1012.2
20260509140016 11 70 1.6 3.2 0.00 0.03 0.00 80 1011.8
20260509134529 11 117 1.6 3.2 0.00 0.03 0.00 80 1011.8
20260509133024 11 14 3.2 9.7 0.00 0.03 0.00 80 1012.1
20260509131517 11 58 4.8 12.9 0.00 0.03 0.00 76 1012.3
20260509130013 11 68 1.6 6.4 0.00 0.03 0.00 76 1011.9
20260509124518 11 86 1.6 12.9 0.00 0.03 0.00 73 1011.7
20260509123021 11 81 8.0 12.9 0.00 0.03 0.00 71 1011.6
20260509121532 11 225 4.8 14.5 0.00 0.03 0.00 72 1011.6
20260509120012 11 191 8.0 12.9 0.00 0.03 0.00 74 1011.4
20260509114515 11 127 3.2 12.9 0.00 0.03 0.00 74 1011.4
20260509113018 11 155 1.6 11.3 0.00 0.03 0.00 73 1011.3
20260509111522 11 79 1.6 4.8 0.00 0.03 0.00 72 1011.4
20260509110006 11 153 3.2 8.0 0.00 0.03 0.00 71 1011.3
20260509104528 11 238 3.2 8.0 0.00 0.03 0.00 71 1011.4
20260509103016 11 61 1.6 12.9 0.00 0.03 0.00 69 1011.6
20260509101523 11 139 11.3 14.5 0.00 0.03 0.00 68 1011.3
20260509100031 11 183 6.4 12.9 0.00 0.03 0.00 68 1011.2
20260509094517 11 136 12.9 20.9 0.00 0.03 0.00 69 1011.2
20260509093012 10 194 9.7 14.5 0.00 0.03 0.00 75 1011.2
20260509091519 10 258 1.6 8.0 0.00 0.03 0.00 75 1011.2
20260509090024 10 149 3.2 8.0 0.00 0.03 0.00 78 1011.3
20260509084530 10 148 4.8 11.3 0.00 0.03 0.00 78 1011.5
20260509083016 8 166 6.4 8.0 0.00 0.03 0.00 86 1011.6
20260509081522 7 136 3.2 6.4 0.00 0.03 0.00 89 1011.9
20260509080022 7 162 1.6 4.8 0.00 0.03 0.00 90 1012.0
20260509074524 7 188 3.2 4.8 0.00 0.03 0.00 90 1012.5
20260509073026 7 193 3.2 4.8 0.00 0.03 0.00 90 1012.4
20260509071518 7 194 3.2 4.8 0.00 0.03 0.00 89 1012.4
20260509070018 7 206 3.2 4.8 0.00 0.03 0.00 90 1012.5
20260509064523 7 143 1.6 3.2 0.00 0.03 0.00 89 1012.7
20260509063024 8 140 0.0 1.6 0.00 0.03 0.00 88 1012.7
20260509061525 8 140 0.0 3.2 0.00 0.03 0.00 88 1012.7
20260509060014 8 201 3.2 4.8 0.00 0.03 0.00 88 1012.6
20260509054523 9 130 1.6 1.6 0.00 0.03 0.00 87 1013.1
20260509053029 9 130 1.6 3.2 0.00 0.03 0.00 86 1013.1
20260509051532 8 144 3.2 6.4 0.00 0.03 0.00 88 1013.1
20260509050017 8 160 3.2 4.8 0.00 0.03 0.00 87 1013.0
20260509044516 8 124 0.0 6.4 0.00 0.03 0.00 87 1013.5
20260509043021 8 169 0.0 4.8 0.00 0.03 0.00 88 1013.3
20260509041504 8 148 3.2 4.8 0.00 0.03 0.00 88 1013.5
20260509040008 9 148 1.6 6.4 0.00 0.05 0.00 86 1013.2
20260509034514 8 100 3.2 4.8 0.00 0.05 0.05 87 1013.0
20260509033015 8 172 1.6 6.4 0.00 0.05 0.05 87 1012.8
20260509031524 8 159 1.6 4.8 0.00 0.05 0.05 88 1013.3
20260509030003 8 133 1.6 1.6 0.00 0.05 0.05 87 1013.4
20260509024508 8 205 3.2 6.4 0.00 0.08 0.05 87 1013.2
20260509023016 7 156 1.6 4.8 0.00 0.08 0.05 89 1013.3
20260509021528 7 155 1.6 4.8 0.00 0.08 0.05 88 1013.4
20260509020026 7 147 3.2 3.2 0.00 0.08 0.05 89 1013.4
20260509014504 7 191 3.2 6.4 0.00 0.08 0.05 89 1013.4
20260509013026 7 158 0.0 4.8 0.00 0.08 0.05 89 1013.3
20260509011512 7 150 1.6 3.2 0.00 0.08 0.05 88 1013.2